Location: Memphis
(29.8667°N, 31.2500°E)
Time: 08:13:25
(UTC+00:00)

Cosmos 2333 - Pass Details

Date: 03 March 2021
Orbit: 829 x 866 km, 70.9° (Epoch: 15 April)

Event Time Altitude Azimuth Distance (km) Brightness Sun altitude
Rises 16:43:22 0° 185° (S) 3,359 7.4 -11.2°
Reaches altitude 10° 16:45:50 10° 180° (S) 2,432 6.6 -11.7°
Maximum altitude 16:51:12 50° 105° (ESE) 1,052 4.3 -12.9°
Drops below altitude 10° 16:56:39 10° 31° (NNE) 2,466 6.3 -14.0°
Sets 16:59:10 0° 27° (NNE) 3,410 7.1 -14.6°
